Regional Weather Roundup
Issued by NWS Grand Forks, ND

Home | Current Version | Previous Version | Graphics & Text | Print | Product List | Glossary On
Versions: 1 2 3 4 5 6 7 8 9 10 11 12 13 14 15 16 17 18 19 20 21 22 23 24 25 26 27 28 29 30 31 32 33 34 35 36 37 38 39 40 41 42 43 44 45 46 47 48 49 50
000
ASUS43 KFGF 090731
RWRFGF
PRAIRIE TO PINES  WEATHER ROUNDUP
NATIONAL WEATHER SERVICE EASTERN NORTH DAKOTA/GRAND FORKS ND
100 AM CST FRI DEC 09 2016

 **SATELLITE DATA USED TO AUGMENT SKY COVER AT AUTOMATED STATIONS**
 *****  WEATHER ACROSS EASTERN NORTH DAKOTA  *****

CITY           SKY/WX    TMP DP  RH WIND       PRES   REMARKS
GRAND FORKS    CLOUDY     8   2  76 NW8       30.58S WCI  -4
GRAND FRKS AFB CLOUDY     7   0  72 NW8       30.58S WCI  -6
DEVILS LAKE    LGT SNOW   0  -4  83 NW9       30.55S FOG     WCI -15
FARGO          CLOUDY     8   2  76 W8        30.59S WCI  -4
WAHPETON ARPT  CLOUDY     5   0  78 W9        30.60F WCI  -9
$$

 ***** WEATHER ACROSS CENTRAL AND WESTERN NORTH DAKOTA  *****

CITY           SKY/WX    TMP DP  RH WIND       PRES   REMARKS
BISMARCK       CLOUDY    -6 -10  83 SW3       30.59S
MINOT          CLOUDY    -8 -12  83 W8        30.55S WCI -24
JAMESTOWN      CLEAR     -6 -10  83 W8        30.55F WCI -21
MINOT AFB      CLOUDY   -11 -16  77 NW9       30.55S WCI -28
GARRISON         N/A    -12 -17  78 N8        30.54F WCI -29
WILLISTON      CLOUDY   -15 -20  78 CALM      30.57F
DICKINSON      CLOUDY   -17 -22  78 S5        30.46S WCI -30
HETTINGER      CLOUDY   -21 -24  86 W3        30.48R
$$

 *****  OTHER AIRPORT OBSERVATIONS IN OUR AREA  *****

CITY           SKY/WX    TMP DP  RH WIND       PRES   REMARKS
WALHALLA       FLURRIES   5   5 100 NW10G20   30.58R WCI -10
GRAFTON AIRPOR CLOUDY     9   1  72 NW9       30.60S WCI  -5
VALLEY CITY AR FAIR      -4  -8  84 NW10      30.57S WCI -21
CANDO          FAIR      -8  -9  92 W8        30.57S WCI -23
CAVALIER APRT  FLURRIES   7   1  78 W9        30.58R WCI  -7
GWINNER        FAIR       0  -6  78 W13       30.59R WCI -18
SHEYENNE NWR     N/A      0  -8  69 NW7       29.95S WCI -13
ROLLA          FAIR      -9 -13  84 NW8       30.51S WCI -26
 ***** THE ABOVE OBSERVATIONS ARE NON NWS ARE NOT QUALITY
       CONTROLLED AND MAY MIS-REPORT RAIN FOR SNOW...
$$

  *****  WEATHER ACROSS NORTHERN MINNESOTA  *****

CITY           SKY/WX    TMP DP  RH WIND       PRES   REMARKS
FLAG ISLAND    CLOUDY     7   1  78 NW15      30.49S WCI -11
WARROAD        CLOUDY     5  -2  72 NW9       30.52S WCI  -9
ROSEAU         CLOUDY     3   0  85 W3        30.53S
HALLOCK        CLOUDY     9   3  78 CALM      30.57S
THF RVR FALLS  FLURRIES   5   2  87 NW6       30.55S WCI  -6
BAUDETTE       CLOUDY     4  -1  80 W12       30.48S WCI -12
WASKISH        CLOUDY     7   1  78 NW7       30.50S WCI  -5
CROOKSTON      CLOUDY     9   5  85 N5        30.58S WCI   0
STEPHEN NDAWN    N/A      7   3  85 N3          N/A
GREENBUSH NDAW   N/A      5   1  85 NW5         N/A  WCI  -4
$$
  *****  WEATHER ACROSS CENTRAL AND WEST MINNESOTA  *****

CITY           SKY/WX    TMP DP  RH WIND       PRES   REMARKS
FOSSTON        CLOUDY     3   0  85 NW5       30.54R WCI  -6
BEMIDJI        CLOUDY     6   2  87 NW8       30.49R WCI  -7
PARK RAPIDS    MOCLDY     5  -1  76 NW7       30.49R WCI  -7
ELBOW LAKE     FLURRIES   4   1  86 NW9       30.57S WCI -10
WADENA         FLURRIES   9   5  85 W7        30.50S WCI  -3
DETROIT LAKES  LGT SNOW   9   5  85 NW7       30.53S WCI  -3
MOORHEAD       MIX PCPN   7   1  78 W7        30.59S WCI  -5
FERGUS FALLS   FLURRIES   3   0  85 NW8       30.62S WCI -10
MORRIS MN      FLURRIES   1   0  92 NW8       30.57S WCI -12
STAPLES        CLOUDY     9   5  85 NW9       30.51R WCI  -5
$$
  *****  WEATHER ELSEWHERE ACROSS MINNESOTA  *****

CITY           SKY/WX    TMP DP  RH WIND       PRES   REMARKS
DULUTH         FLURRIES  11   5  77 NW10      30.41R WCI  -3
INTRNTL FALLS  CLOUDY    10   4  76 NW8       30.45R WCI  -2
ELY            CLOUDY     7   5  92 CALM      30.40R
CLOQUET        MOCLDY    10   5  79 NW5       30.44R WCI   2
WHEATON        MOCLDY     1  -2  85 W7        30.62S WCI -11
BRAINERD       CLOUDY    13   9  84 NW8       30.49S WCI   2
HIBBING        CLOUDY    10   5  80 N6        30.43S WCI   0
ALEXANDRIA     PTCLDY     2  -1  88 NW10      30.53R WCI -14
SAINT CLOUD    MOCLDY    11   8  88 NW7       30.52S WCI   0
MINNEAPOLIS    CLOUDY    17  10  74 NW13      30.53R WCI   4
$$

  *****  WEATHER ACROSS SOUTH DAKOTA  *****

CITY           SKY/WX    TMP DP  RH WIND       PRES   REMARKS
SIOUX FALLS    CLEAR      3  -1  83 W6        30.59S WCI  -8
BROOKINGS      CLEAR     -1  -5  82 NW6       30.56S WCI -13
WATERTOWN      CLEAR     -2  -6  83 NW9       30.54S WCI -18
HURON          CLEAR     -3  -6  87 NW6       30.63S WCI -15
SISSETON         N/A      0  -6  76 NW8       30.59S WCI -14
ABERDEEN       CLEAR     -6 -12  75 SW3       30.62F
MITCHELL       CLEAR      0  -4  83 W6        30.64F WCI -12
PIERRE         CLOUDY     3  -3  76 E6        30.56F WCI  -8
MOBRIDGE       CLOUDY    -5 -10  79 N6        30.54F WCI -18
RAPID CITY     CLOUDY     2  -5  72 E3        30.36F
$$

  *****  SOME WEATHER IN NEARBY STATES *****

CITY           SKY/WX    TMP DP  RH WIND       PRES   REMARKS
GLASGOW MT     CLEAR     -6 -11  79 E9        30.49F WCI -23
GREAT FALLS MT CLOUDY    -3  -8  79 NE5       30.30S WCI -13
CHEYENNE WY    CLOUDY    11   4  73 VRB7      30.08F WCI   0
SCOTTSBLUFF NE CLOUDY     8   1  73 SE13      30.24F WCI  -8
OMAHA NE       CLEAR     10   3  73 N6        30.65S WCI   0
DES MOINES IA  PTCLDY    15   8  73 NW12      30.59S WCI   2
DAVENPORT IA   CLOUDY    20  12  71 NW14      30.51S WCI   7
CHICAGO IL     PTCLDY    21  16  81 W13       30.41S WCI   9
EAU CLAIRE WI  CLEAR     17  11  77 NW8       30.46R WCI   7
LA CROSSE WI   CLOUDY    24  15  68 NW13      30.48R WCI  12
$$

  *****  SOME NATIONAL WEATHER *****

CITY           SKY/WX    TMP DP  RH WIND       PRES   REMARKS
LA GUARDIA NY  PTCLDY    35  16  45 W18G30    30.01R WCI  24
RALEIGH NC     MOCLDY    37  12  35 NW5       30.25R
ATLANTA GA     PTCLDY    33  18  53 NW17      30.36S WCI  22
NEW ORLEANS LA MOCLDY    45  32  60 N16G23    30.46F
OKLAHOMA CITY  CLOUDY    27   7  42 N5        30.65S WCI  22
ALBUQUERQUE NM CLOUDY    26  19  74 SE6       30.37S WCI  19
SALT LAKE CITY CLOUDY    29  23  78 SE9       30.16F WCI  20
LOS ANGELES CA PTCLDY    59  51  75 VRB3      30.26R
BOISE ID       CLOUDY    29  24  82 S8        30.09R WCI  21
SEATTLE WA     LGT SNOW  31  27  85 E7        29.94R FOG     WCI  24
$$

*** WEATHER ACROSS MANITOBA...SASKATCHEWAN AND ONTARIO ***
                ***ONTARIO***

CITY           SKY/WX    TMP DP  RH WIND       PRES   REMARKS
GERALDTON      FLURRIES  10   5  79 NW12G17   30.28R WCI  -4
THUNDER BAY    FLURRIES  16   7  67 N9        30.39R WCI   4
SIOUX LOOKOUT  FLURRIES   9   3  78 N2        30.39R
TORONTO        PTCLDY    25  16  68 NW15G22   30.07R WCI  12
BIG TROUT LK   FLURRIES   0  -4  85 NW15      30.39S WCI -20
PICKLE LAKE    NOT AVBL
DRYDEN         LGT SNOW   7   5  92 W6        30.40R WCI  -3
KENORA         FLURRIES   7   3  85 W7        30.43S WCI  -5
$$
                *** MANITOBA***

CITY           SKY/WX    TMP DP  RH WIND       PRES   REMARKS
BRANDON        CLEAR    -13 -17  84 W10       30.56S WCI -32
DAUPHIN        FLURRIES  -8 -11  84 W8        30.59F WCI -23
ISLAND LAKE    NOT AVBL
PILOT MOUND      N/A     -6  -9  84 W7          N/A  WCI -20
THE PAS        MOCLDY    -2  -9  71 NW8       30.62S WCI -17
THOMPSON       CLEAR    -20 -27  69 NW5       30.59S WCI -33
WINNIPEG       CLOUDY     1  -6  71 NW9       30.58R WCI -14
LYNN LAKE      MOCLDY   -18 -24  76 NW8       30.62S WCI -37
CHURCHILL      FLURRIES  -2  -4  92 NW22G29   30.52S WCI -26
GILLAM         FLURRIES -13 -18  77 NW13      30.55R WCI -34
$$
                ***SASKATCHEWAN***

CITY           SKY/WX    TMP DP  RH WIND       PRES   REMARKS
ESTEVAN        PTCLDY   -17 -22  76 W9        30.55S WCI -36
KINDERSLEY     CLOUDY    -6 -11  77 N7        30.54F WCI -20
LLOYDMINSTER   MOCLDY   -17 -22  76 N2        30.58S
PRINCE ALBERT  CRYSTALS -15 -20  76 W3        30.65R
REGINA         CLEAR    -13 -18  77 NW3       30.57S
YORKTON        CLOUDY    -9 -13  84 NW10      30.56R WCI -28
N. BATTLEFORD  MOCLDY   -15 -22  70 N5        30.65R WCI -27
LA RONGE       CLEAR    -18 -24  76 NW6       30.68S WCI -33
SASKATOON      CRYSTALS -13 -18  77 NW5       30.64S WCI -25
SWIFT CURRENT  FLURRIES  -6  -9  84 NE5       30.46F WCI -17
$$
NOTE: THESE ARE AUTOMATED STATIONS WITH LIMITED QUALITY CONTROL
      "FAIR" INDICATES FEW OR NO CLOUDS BELOW 12,000 FEET WITH NO
      SIGNIFICANT WEATHER AND/OR OBSTRUCTIONS TO VISIBILITY.
      SKY/WX - SKY CONDITION AND SIGNIFICANT WEATHER.
      TMP - AIR TEMPERATURE.    DP   - DEWPOINT TEMPERATURE.
      RH  - RELATIVE HUMIDITY.  PRES - PRESSURE.
      HX  - HEAT INDEX.         WCI  - WIND CHILL INDEX.
$




USA.gov is the U.S. government's official web portal to all federal, state and local government web resources and services.